Shannon, Ireland

3:06 AM IST on April 25, 2018 (GMT +0100)
Shannon

Weather History for EINN - March, 2013

Change the Weather History Date:

Thursday, March 14, 2013

  Actual Average Record
Temperature  
Mean Temperature 41 °F -  
Max Temperature 50 °F 53 °F 57 °F (2007)
Min Temperature 32 °F 39 °F 30 °F (2015)
Degree Days  
Heating Degree Days 24    
Moisture  
Dew Point 37 °F    
Average Humidity 84    
Maximum Humidity 93    
Minimum Humidity 63    
Precipitation  
Precipitation 0.02 in 0.08 in - ()
Sea Level Pressure  
Sea Level Pressure 30.01 in    
Wind  
Wind Speed 8 mph ()    
Max Wind Speed 20 mph    
Max Gust Speed -    
Visibility 6.5 miles    
Events Rain    
Averages and records for this station are not official NWS values.
T = Trace of Precipitation, MM = Missing Value Source: Averaged Metar Reports

Daily Weather History Graph

Daily Weather History Graph

Search for Another Location

Airport or City:

Astronomy

Mar. 14, 2013 Rise Set
Actual Time 6:52 AM GMT 6:38 PM GMT
Civil Twilight 6:18 AM GMT 7:12 PM GMT
Nautical Twilight 5:38 AM GMT 7:52 PM GMT
Astronomical Twilight 4:56 AM GMT 8:34 PM GMT
Moon 7:32 AM GMT (3/14) 10:12 PM GMT (3/14)
Length of Visible Light 12h 54m
Length of Day
11h 46m
Waxing Crescent, 8% of the Moon is Illuminated
Mar 14
Waxing Crescent
Mar 19
First Quarter
Mar 27
Full
Apr 3
Last Quarter
Apr 10
New

Hourly Weather History & Observations

Time (GMT) Temp. Windchill Dew Point Humidity Pressure Visibility Wind Dir Wind Speed Gust Speed Precip Events Conditions
12:00 AM 35 °F - 32 °F 85% 30.15 in 12 mi West 2.2 mph - -   Scattered Clouds
12:00 AM 35.6 °F - 32.0 °F 87% 30.12 in 6.2 mi West 2.3 mph - N/A   Partly Cloudy
12:30 AM 35.6 °F 29.9 °F 33.8 °F 93% 30.12 in 6.2 mi WNW 6.9 mph - N/A   Partly Cloudy
1:00 AM 33.8 °F 27.7 °F 32.0 °F 93% 30.12 in 6.2 mi NW 6.9 mph - N/A   Partly Cloudy
1:30 AM 33.8 °F 27.7 °F 32.0 °F 93% 30.15 in 6.2 mi NW 6.9 mph - N/A   Partly Cloudy
2:00 AM 33.8 °F 27.7 °F 32.0 °F 93% 30.12 in 6.2 mi WNW 6.9 mph - N/A   Partly Cloudy
2:30 AM 33.8 °F 27.7 °F 32.0 °F 93% 30.12 in 6.2 mi NW 6.9 mph - N/A   Partly Cloudy
3:00 AM 33.8 °F 28.6 °F 32.0 °F 93% 30.12 in 6.2 mi WNW 5.8 mph - N/A   Scattered Clouds
3:30 AM 33.8 °F - 32.0 °F 93% 30.12 in 6.2 mi Variable 2.3 mph - N/A   Mostly Cloudy
4:00 AM 35.6 °F 30.7 °F 33.8 °F 93% 30.12 in 6.2 mi West 5.8 mph - N/A   Mostly Cloudy
4:30 AM 35.6 °F 32.8 °F 33.8 °F 93% 30.12 in 6.2 mi West 3.5 mph - N/A   Mostly Cloudy
5:00 AM 35.6 °F 30.7 °F 33.8 °F 93% 30.12 in 6.2 mi West 5.8 mph - N/A   Mostly Cloudy
5:30 AM 37.4 °F 32.1 °F 33.8 °F 87% 30.12 in 6.2 mi WSW 6.9 mph - N/A   Mostly Cloudy
6:00 AM 37 °F - 34 °F 84% 30.12 in 12 mi WSW 6.7 mph - -   Partly Cloudy
6:00 AM 37.4 °F 32.8 °F 33.8 °F 87% 30.09 in 6.2 mi WSW 5.8 mph - N/A   Scattered Clouds
6:30 AM 37.4 °F 31.4 °F 35.6 °F 93% 30.09 in 6.2 mi West 8.1 mph - N/A   Scattered Clouds
7:00 AM 39.2 °F 33.6 °F 35.6 °F 87% 30.09 in 6.2 mi West 8.1 mph - N/A   Scattered Clouds
7:30 AM 39.2 °F 33.6 °F 35.6 °F 87% 30.09 in 6.2 mi West 8.1 mph - N/A   Mostly Cloudy
8:00 AM 39.2 °F 33.6 °F 35.6 °F 87% 30.09 in 6.2 mi WSW 8.1 mph - N/A   Scattered Clouds
8:30 AM 41.0 °F 36.4 °F 37.4 °F 87% 30.09 in 6.2 mi WSW 6.9 mph - N/A   Mostly Cloudy
9:00 AM 41.0 °F 35.8 °F 37.4 °F 87% 30.09 in 6.2 mi SW 8.1 mph - N/A   Scattered Clouds
9:30 AM 42.8 °F 36.6 °F 39.2 °F 87% 30.09 in 6.2 mi WSW 11.5 mph - N/A   Scattered Clouds
10:00 AM 44.6 °F 38.1 °F 39.2 °F 81% 30.09 in 6.2 mi WSW 13.8 mph - N/A   Partly Cloudy
10:30 AM 46.4 °F 40.4 °F 41.0 °F 81% 30.06 in 6.2 mi WSW 13.8 mph - N/A   Mostly Cloudy
11:00 AM 46.4 °F 40.1 °F 41.0 °F 81% 30.06 in 6.2 mi SW 15.0 mph - N/A   Mostly Cloudy
11:30 AM 46.4 °F 42.4 °F 41.0 °F 81% 30.06 in 6.2 mi NNW 8.1 mph - N/A Rain Light Rain Showers
12:00 PM 49 °F - 40 °F 63% 30.06 in 12 mi West 17.9 mph - - Rain Light Rain Showers
12:00 PM 48.2 °F - 41.0 °F 76% 30.04 in 6.2 mi West 17.3 mph - N/A   Mostly Cloudy
12:30 PM 50.0 °F - 39.2 °F 66% 30.04 in 6.2 mi West 17.3 mph - N/A   Mostly Cloudy
1:00 PM 48.2 °F - 37.4 °F 66% 30.04 in 6.2 mi West 16.1 mph - N/A   Mostly Cloudy
1:30 PM 48.2 °F - 37.4 °F 66% 30.01 in 6.2 mi West 19.6 mph - N/A   Scattered Clouds
2:00 PM 46.4 °F 39.8 °F 39.2 °F 76% 30.01 in 6.2 mi WSW 16.1 mph - N/A   Mostly Cloudy
2:30 PM 46.4 °F 40.1 °F 39.2 °F 76% 29.98 in 6.2 mi SW 15.0 mph - N/A   Mostly Cloudy
3:00 PM 48.2 °F - 39.2 °F 71% 29.98 in 6.2 mi West 13.8 mph - N/A   Mostly Cloudy
3:30 PM 44.6 °F 38.8 °F 41.0 °F 87% 29.98 in 6.2 mi West 11.5 mph - N/A   Mostly Cloudy
4:00 PM 46.4 °F 41.1 °F 41.0 °F 81% 29.95 in 6.2 mi WSW 11.5 mph - N/A   Mostly Cloudy
4:30 PM 46.4 °F 40.1 °F 39.2 °F 76% 29.95 in 6.2 mi WSW 15.0 mph - N/A Rain Light Rain Showers
5:00 PM 46.4 °F 40.1 °F 41.0 °F 81% 29.95 in 6.2 mi West 15.0 mph - N/A   Mostly Cloudy
5:30 PM 46.4 °F 40.4 °F 39.2 °F 76% 29.92 in 6.2 mi WSW 13.8 mph - N/A   Mostly Cloudy
6:00 PM 46 °F - 39 °F 69% 29.93 in 25 mi WSW 13.4 mph - -   Partly Cloudy
6:00 PM 46.4 °F 40.4 °F 39.2 °F 76% 29.92 in 6.2 mi WSW 13.8 mph - N/A   Mostly Cloudy
6:30 PM 44.6 °F 38.4 °F 39.2 °F 81% 29.92 in 6.2 mi WSW 12.7 mph - N/A   Mostly Cloudy
7:00 PM 44.6 °F 38.4 °F 39.2 °F 81% 29.92 in 6.2 mi WSW 12.7 mph - N/A   Mostly Cloudy
7:30 PM 42.8 °F 36.2 °F 41.0 °F 93% 29.89 in 6.2 mi WSW 12.7 mph - N/A Rain Light Rain Showers
8:00 PM 42.8 °F 36.2 °F 39.2 °F 87% 29.86 in 6.2 mi SW 12.7 mph - N/A   Scattered Clouds
8:30 PM 42.8 °F 36.2 °F 39.2 °F 87% 29.86 in 6.2 mi SW 12.7 mph - N/A   Scattered Clouds
9:00 PM 42.8 °F 36.2 °F 39.2 °F 87% 29.83 in 6.2 mi SSW 12.7 mph - N/A   Mostly Cloudy
9:30 PM 42.8 °F 36.6 °F 39.2 °F 87% 29.83 in 6.2 mi SSW 11.5 mph - N/A   Mostly Cloudy
10:00 PM 42.8 °F 36.6 °F 39.2 °F 87% 29.80 in 6.2 mi SSW 11.5 mph - N/A   Mostly Cloudy
10:30 PM 42.8 °F 36.2 °F 39.2 °F 87% 29.77 in 6.2 mi SSW 12.7 mph - N/A   Mostly Cloudy
11:00 PM 42.8 °F 35.8 °F 39.2 °F 87% 29.77 in 6.2 mi SSW 13.8 mph - N/A Rain Light Rain
11:30 PM 44.6 °F 37.8 °F 39.2 °F 81% 29.74 in 6.2 mi SSW 15.0 mph - N/A Rain Light Rain